User: anonymous   Login
Location: Unspecified
(0.0000°N, 0.0000°E)
Time: 14:00:22
(UTC+00:00)
Language:

NNS O-2 - Orbit

View from above orbital plane
View from above orbital plane
View from above satellite
View from above satellite

Ground track
Ground track

The orbit data is extracted from the following two-line orbital elements,

1   965U 64083D   18050.95002617 +.00000052 +00000-0 +58998-4 0  9995
2   965 090.0138 192.0201 0041175 160.4161 311.4174 13.56713132631592
Epoch (UTC): 19 February 2018 22:48:02
Eccentricity: 0.0041175
inclination: 90.0138°
perigee height: 1017 km
apogee height: 1078 km
right ascension of ascending node: 192.0201°
argument of perigee: 160.4161°
revolutions per day: 13.56713132
mean anomaly at epoch: 311.4174°
orbit number at epoch: 63159

The dashed part of the orbit path shows where the satellite is in the earth's shadow,  

DLR